[[{"header":{"parameterUnit":"m.s-1","parameterCategory":1,"la1":30.2991,"la2":30.254,"lo1":-89.0895,"lo2":-89.0444,"dy":0.0017,"dx":0.0017,"nx":28,"ny":28,"refTime":"2025-03-15T21:00:00:Z","depth":0,"parameterNumber":2,"parameterNumberName":"U-component_of_WINDS"},"data":[0,0,0,0,0,0,0,0,0,0,0,0,0,0,0,0,0,0,0,0,0,0,0,0,0,0,0,0,0,0,0,0,0,0,0,0,0,0,0,0,0,0,0,0,0,0,0,0,0,0,0,0,0,0,0,0,0,0,-0.0463,-0.0465,0,-0.0634,-0.0636,-0.0638,-0.0745,-0.0746,-0.0746,-0.0747,-0.0923,-0.0927,-0.0931,0,0,0,0,0,0,0,0,0,0,0,0,0,-0.0229,-0.0233,-0.0463,-0.0465,-0.0467,-0.0634,-0.0636,-0.0639,-0.0745,-0.0746,-0.0747,-0.0747,-0.0921,-0.0926,-0.0931,0,0,0,0,0,0,0,0,0,0,0,0,0,-0.0358,-0.0234,-0.0462,-0.054,-0.0549,-0.0633,-0.0636,-0.0639,-0.0745,-0.0746,-0.0747,-0.0748,-0.092,-0.0926,-0.0932,-0.0952,0,0,-0.0951,-0.0953,0,0,0,0,0,0,0,0,-0.0351,-0.0367,-0.0527,-0.0535,-0.0545,-0.0669,-0.0618,-0.0744,-0.0745,-0.0671,-0.0747,-0.0748,-0.0838,-0.0851,-0.0881,-0.096,-0.0968,-0.0951,-0.0955,-0.0958,-0.0959,0,0,0,0,0,0,0,-0.0342,-0.036,-0.0531,-0.0529,-0.054,-0.0567,-0.0587,-0.0643,-0.0747,-0.0677,-0.0685,-0.0704,-0.0843,-0.0875,-0.0886,-0.097,-0.0951,-0.0957,-0.096,-0.0963,-0.1076,-0.1075,0,0,0,0,0,0,-0.032,-0.0352,-0.0525,-0.0536,-0.0448,-0.0571,-0.0592,-0.0628,-0.0747,-0.0766,-0.0703,-0.0708,-0.0864,-0.0878,-0.0892,-0.0924,-0.0958,-0.0963,-0.0967,-0.1077,-0.1076,-0.1075,0,0,0,0,0,0,-0.0315,-0.0335,-0.0518,-0.0446,-0.0472,-0.0574,-0.0613,-0.0631,-0.0663,-0.0766,-0.0786,-0.0716,-0.0865,-0.0884,-0.0937,-0.0932,-0.0966,-0.0972,-0.1078,-0.1076,-0.1075,-0.0988,0,0,0,0,0,0,-0.0308,-0.0332,-0.0341,-0.0446,-0.0475,-0.0559,-0.0613,-0.0634,-0.0674,-0.0682,-0.0784,-0.0802,-0.0867,-0.0927,-0.0943,-0.0941,-0.0977,-0.1078,-0.1077,-0.1076,-0.0992,-0.0984,-0.0977,0,0,0,0,0,-0.0299,-0.0309,-0.0341,-0.0361,-0.0488,-0.0559,-0.0576,-0.0651,-0.0673,-0.0682,-0.0749,-0.0798,-0.093,-0.0931,-0.095,-0.095,-0.1079,-0.1077,-0.1076,-0.0995,-0.0985,-0.0977,0,0,0,0,0,0,-0.0202,-0.0324,-0.0361,-0.0405,-0.047,-0.0577,-0.0591,-0.0638,-0.0699,-0.0704,-0.0795,-0.0817,-0.0861,-0.0911,-0.0911,-0.0976,-0.101,-0.1012,-0.0942,-0.0934,-0.0927,-0.0914,-0.0982,0,0,0,0,0,-0.0185,-0.0232,-0.0337,-0.0366,-0.0397,-0.0488,-0.0522,-0.0574,-0.0646,-0.0674,-0.0744,-0.0812,-0.0869,-0.0904,-0.0962,-0.0999,-0.1023,-0.1009,-0.1002,-0.0995,-0.0996,-0.102,-0.1015,-0.107,-0.107,-0.107,0,0,-0.0152,-0.0225,-0.0249,-0.0348,-0.0405,-0.0452,-0.0511,-0.0558,-0.0594,-0.0681,-0.0736,-0.0789,-0.0871,-0.0916,-0.094,-0.0959,-0.0986,-0.0993,-0.0987,-0.0992,-0.1018,-0.1012,-0.1008,-0.1069,-0.1069,-0.1069,0,0,-0.0115,-0.0175,-0.0206,-0.0262,-0.0347,-0.0407,-0.0414,-0.0514,-0.0553,-0.0609,-0.0675,-0.072,-0.0815,-0.0871,-0.0912,-0.0896,-0.0944,-0.0912,-0.0875,-0.0897,-0.0893,-0.0889,-0.0884,-0.0881,-0.0913,-0.0912,-0.0912,0,-0.0063,-0.0136,-0.0216,-0.0259,-0.0301,-0.0382,-0.0414,-0.0465,-0.0564,-0.0592,-0.0612,-0.0734,-0.0795,-0.0855,-0.0851,-0.0881,-0.0892,-0.0901,-0.0887,-0.0884,-0.0882,-0.0878,-0.0876,-0.0908,-0.0909,-0.0909,-0.0909,0,-0.0068,-0.0118,-0.0133,-0.0227,-0.027,-0.0308,-0.0393,-0.0428,-0.0476,-0.0534,-0.059,-0.0666,-0.0741,-0.0759,-0.0806,-0.0825,-0.0835,-0.087,-0.0906,-0.0871,-0.0869,-0.0868,-0.0902,-0.0903,-0.0905,-0.0906,0,0,0.0025,-0.0112,-0.0117,-0.016,-0.026,-0.0301,-0.0342,-0.0415,-0.0443,-0.0509,-0.0546,-0.0625,-0.0659,-0.0705,-0.0759,-0.0779,-0.0762,-0.0812,-0.0815,-0.08,-0.0788,-0.0761,-0.0758,-0.0794,-0.0794,-0.0794,-0.0781,0,0.0046,-0.0031,-0.0104,-0.0156,-0.0203,-0.028,-0.0316,-0.0382,-0.0437,-0.0486,-0.0547,-0.0602,-0.0642,-0.067,-0.0693,-0.0759,-0.0761,-0.0761,-0.083,-0.0832,-0.0807,-0.0757,-0.0728,-0.0712,-0.0781,-0.0781,-0.078,0,0.0061,-0.0001,-0.0057,-0.0153,-0.0175,-0.0206,-0.0279,-0.0324,-0.04,-0.0439,-0.0491,-0.0548,-0.0596,-0.0626,-0.0693,-0.0692,-0.0725,-0.0761,-0.0763,-0.0772,-0.0804,-0.0765,-0.0709,-0.0706,-0.078,-0.078,-0.078,0,0.0135,0.0037,-0.001,-0.0045,-0.0158,-0.0178,-0.0225,-0.0302,-0.0342,-0.0405,-0.0432,-0.05,-0.0538,-0.0589,-0.0664,-0.0679,-0.0723,-0.076,-0.0758,-0.0756,-0.0764,-0.0762,-0.0712,-0.0784,-0.0784,-0.0784,-0.0784,0,0.0166,0.0135,0.0022,-0.0007,-0.0044,-0.0128,-0.0163,-0.0218,-0.0285,-0.0326,-0.0398,-0.0435,-0.0531,-0.0579,-0.0638,-0.0685,-0.0701,-0.0734,-0.075,-0.0728,-0.0724,-0.0751,-0.0754,-0.0783,-0.0783,-0.0784,-0.0784,0,0.0241,0.0164,0.0109,0.0007,-0.0019,-0.0043,-0.013,-0.0161,-0.0221,-0.0271,-0.0288,-0.0382,-0.0442,-0.0522,-0.0608,-0.0647,-0.0687,-0.0711,-0.0661,-0.067,-0.0664,-0.0663,-0.0629,-0.0629,-0.07,-0.0699,-0.0698,0,0.0267,0.0241,0.0136,0.0104,0.0058,0.0007,-0.0033,-0.0116,-0.0155,-0.0244,-0.0264,-0.033,-0.0388,-0.0481,-0.0557,-0.0623,-0.0649,-0.0633,-0.066,-0.0637,-0.065,-0.0647,-0.065,-0.0626,-0.0625,-0.0624,-0.0623,0,0.0319,0.0282,0.0227,0.0159,0.0113,0.0055,-0.0006,-0.0029,-0.0125,-0.0165,-0.0228,-0.0273,-0.036,-0.0425,-0.0501,-0.0552,-0.0603,-0.0614,-0.0617,-0.0595,-0.0566,-0.0582,-0.0643,-0.0614,-0.0615,-0.0616,-0.0616,-0.0617,0.0369,0.0343,0.0265,0.0206,0.0152,0.0096,0.0062,-0.0001,-0.0055,-0.0133,-0.0179,-0.024,-0.0316,-0.0423,-0.0471,-0.0521,-0.0541,-0.0545,-0.0546,-0.0546,-0.0539,-0.0557,-0.0535,-0.0535,-0.0535,-0.0536,-0.0536,0,0.0418,0.0364,0.0311,0.0228,0.0181,0.0137,0.0067,0.0031,-0.0022,-0.0088,-0.0143,-0.0215,-0.0279,-0.0359,-0.0428,-0.0452,-0.0478,-0.0468,-0.0467,-0.0478,-0.0517,-0.0508,-0.0446,-0.0446,-0.0446,-0.0446,-0.0446,-0.0446,0.0438,0.039,0.0345,0.0269,0.0215,0.0155,0.0119,0.0067,0.0014,-0.0063,-0.0116,-0.0168,-0.0241,-0.0316,-0.0376,-0.0398,-0.042,-0.0403,-0.0432,-0.0467,-0.0475,-0.0483,-0.0474,-0.0407,-0.0407,-0.0389,-0.0389,-0.0389]},{"header":{"parameterUnit":"m.s-1","parameterCategory":1,"la1":30.2991,"la2":30.254,"lo1":-89.0895,"lo2":-89.0444,"dy":0.0017,"dx":0.0017,"nx":28,"ny":28,"refTime":"2025-03-15T21:00:00:Z","depth":0,"parameterNumber":3,"parameterNumberName":"V-component_of_WINDS"},"data":[0,0,0,0,0,0,0,0,0,0,0,0,0,0,0,0,0,0,0,0,0,0,0,0,0,0,0,0,0,0,0,0,0,0,0,0,0,0,0,0,0,0,0,0,0,0,0,0,0,0,0,0,0,0,0,0,0,0,9.1513,9.1515,0,9.1692,9.1694,9.1696,9.1692,9.1689,9.1687,9.1684,9.1869,9.1876,9.1883,0,0,0,0,0,0,0,0,0,0,0,0,0,9.1173,9.1179,9.1513,9.1515,9.1518,9.1691,9.1694,9.1696,9.1692,9.1689,9.1686,9.1683,9.1867,9.1875,9.1884,0,0,0,0,0,0,0,0,0,0,0,0,0,9.1333,9.1181,9.1513,9.1536,9.154,9.1691,9.1694,9.1697,9.1693,9.1689,9.1685,9.1682,9.1864,9.1874,9.1885,9.2024,0,0,9.1918,9.1922,0,0,0,0,0,0,0,0,9.1324,9.1345,9.1531,9.1535,9.154,9.1666,9.1642,9.1807,9.1694,9.1635,9.1684,9.168,9.1804,9.182,9.1861,9.2033,9.2041,9.1919,9.1925,9.193,9.1933,0,0,0,0,0,0,0,9.1313,9.1338,9.1584,9.1533,9.1539,9.154,9.1558,9.1673,9.1738,9.164,9.164,9.1661,9.1806,9.1851,9.1866,9.2044,9.1918,9.1928,9.1935,9.1939,9.2345,9.2349,0,0,0,0,0,0,9.1296,9.1328,9.1578,9.1589,9.142,9.1549,9.1569,9.1629,9.1737,9.175,9.1664,9.166,9.1834,9.1853,9.1872,9.2046,9.193,9.194,9.1946,9.234,9.2345,9.235,0,0,0,0,0,0,9.1289,9.1319,9.1571,9.1459,9.1491,9.1558,9.1625,9.1634,9.1679,9.1755,9.1767,9.1697,9.1832,9.1857,9.1988,9.2053,9.1945,9.1955,9.2335,9.2342,9.2348,9.2394,0,0,0,0,0,0,9.1279,9.1316,9.1368,9.146,9.1497,9.1682,9.1629,9.164,9.1698,9.1694,9.179,9.1802,9.1831,9.1972,9.1998,9.2065,9.1963,9.233,9.2338,9.2346,9.2387,9.2401,9.2413,0,0,0,0,0,9.1267,9.1373,9.1371,9.1401,9.1564,9.1686,9.1707,9.1738,9.1703,9.1757,9.1807,9.1799,9.2041,9.1985,9.2015,9.2086,9.2326,9.2336,9.2345,9.2381,9.2398,9.2413,0,0,0,0,0,0,9.1287,9.1386,9.1384,9.1523,9.1596,9.1685,9.1754,9.1755,9.184,9.1833,9.1869,9.1891,9.2022,9.2067,9.2003,9.223,9.2179,9.2195,9.2196,9.2213,9.2226,9.2213,9.1972,0,0,0,0,0,9.1307,9.1397,9.1479,9.1594,9.1631,9.1686,9.174,9.1758,9.1836,9.1867,9.1925,9.2002,9.2096,9.2156,9.2246,9.2393,9.2416,9.2457,9.247,9.2481,9.2495,9.258,9.2601,9.2382,9.2382,9.2382,0,0,9.135,9.1416,9.147,9.1599,9.1658,9.1753,9.1712,9.1812,9.1884,9.1882,9.201,9.2056,9.2144,9.2284,9.2349,9.2326,9.2561,9.2493,9.2501,9.251,9.2592,9.2613,9.2632,9.2389,9.2387,9.2386,0,0,9.1478,9.1535,9.1639,9.1699,9.1789,9.1826,9.1851,9.1941,9.1972,9.2101,9.2104,9.2189,9.2348,9.2412,9.2466,9.2622,9.262,9.265,9.272,9.2803,9.282,9.2836,9.2895,9.2916,9.2664,9.2664,9.2664,0,9.1521,9.1662,9.1692,9.1795,9.1853,9.1857,9.1965,9.2022,9.2137,9.2178,9.215,9.2353,9.2412,9.257,9.2609,9.265,9.2683,9.264,9.2815,9.2831,9.2846,9.2903,9.2925,9.2667,9.2667,9.2667,9.2666,0,9.1712,9.181,9.1883,9.1996,9.2062,9.2166,9.2215,9.2279,9.2292,9.2333,9.2467,9.2538,9.2645,9.2683,9.2696,9.2844,9.2828,9.2807,9.2757,9.287,9.2924,9.2946,9.2672,9.2671,9.267,9.2669,0,0,9.1856,9.1986,9.2013,9.2066,9.2167,9.2244,9.235,9.2455,9.2511,9.2591,9.2683,9.2819,9.2803,9.2863,9.2884,9.2956,9.3081,9.2927,9.293,9.2956,9.3254,9.3271,9.3295,9.3079,9.3084,9.3087,9.3247,0,9.1996,9.2184,9.2217,9.2382,9.2475,9.2482,9.2575,9.2648,9.269,9.2777,9.2823,9.2921,9.2889,9.2926,9.2998,9.305,9.3142,9.3039,9.3168,9.3173,9.3149,9.3323,9.334,9.3488,9.3269,9.3272,9.3275,0,9.2185,9.2272,9.2446,9.2539,9.258,9.2662,9.2763,9.2845,9.293,9.2956,9.3026,9.3039,9.3152,9.3096,9.3255,9.3185,9.324,9.3274,9.328,9.3296,9.3232,9.3346,9.3535,9.3559,9.3308,9.3305,9.3303,0,9.2277,9.2437,9.2563,9.2608,9.2718,9.2777,9.2826,9.2907,9.297,9.3058,9.31,9.32,9.3256,9.3334,9.3376,9.3331,9.3533,9.348,9.356,9.356,9.3604,9.3601,9.3808,9.3635,9.3635,9.3634,9.3634,0,9.2433,9.254,9.2607,9.2685,9.2807,9.2844,9.2964,9.3012,9.3085,9.3175,9.3186,9.327,9.3318,9.341,9.3443,9.3572,9.3596,9.3622,9.363,9.3623,9.362,9.3661,9.3653,9.364,9.3639,9.3638,9.3637,0,9.2556,9.2605,9.2744,9.2838,9.2864,9.295,9.3032,9.3109,9.3151,9.3265,9.3294,9.3361,9.347,9.3519,9.3652,9.3675,9.3823,9.3822,9.3795,9.3798,9.3878,9.3871,9.4121,9.4157,9.3957,9.3958,9.396,0,9.2653,9.2737,9.284,9.2901,9.2952,9.3049,9.3114,9.3155,9.3222,9.3327,9.3393,9.3502,9.3592,9.3767,9.3829,9.3933,9.3936,9.4017,9.3952,9.3944,9.3942,9.3938,9.3948,9.4029,9.4031,9.4033,9.4034,0,9.2822,9.2843,9.2935,9.3037,9.3114,9.3196,9.3276,9.3325,9.338,9.3455,9.3567,9.3637,9.3775,9.3885,9.3994,9.4046,9.4051,9.4054,9.4079,9.4073,9.4055,9.407,9.383,9.4048,9.4047,9.4046,9.4045,9.4044,9.2938,9.3014,9.31,9.3203,9.3269,9.3345,9.3423,9.3476,9.357,9.3686,9.3705,9.3826,9.3913,9.4059,9.4116,9.4213,9.4193,9.4228,9.4238,9.4247,9.4253,9.4038,9.4232,9.4232,9.4231,9.4231,9.4231,0,9.311,9.3167,9.3261,9.3375,9.3457,9.3453,9.3543,9.3613,9.3719,9.3799,9.3888,9.402,9.4127,9.4199,9.4308,9.4372,9.4378,9.44,9.4397,9.441,9.4262,9.4231,9.4394,9.4394,9.4394,9.4394,9.4394,9.4394,9.321,9.334,9.3371,9.3535,9.3591,9.3709,9.3762,9.3833,9.3898,9.4044,9.4134,9.4179,9.4258,9.4374,9.4474,9.4492,9.4534,9.4558,9.4576,9.4437,9.442,9.4404,9.4375,9.4566,9.4566,9.4716,9.4718,9.4719]}]]